Regional Weather Roundup
Issued by NWS Grand Forks, ND

Home | Current Version | Previous Version | Graphics & Text | Print | Product List | Glossary On
Versions: 1 2 3 4 5 6 7 8 9 10 11 12 13 14 15 16 17 18 19 20 21 22 23 24 25 26 27 28 29 30 31 32 33 34 35 36 37 38 39 40 41 42 43 44 45 46 47 48 49 50
000
ASUS43 KFGF 251410
RWRFGF
PRAIRIE TO PINES  WEATHER ROUNDUP
NATIONAL WEATHER SERVICE EASTERN NORTH DAKOTA/GRAND FORKS ND
900 AM CDT MON MAY 25 2015

 **SATELLITE DATA USED TO AUGMENT SKY COVER AT AUTOMATED STATIONS**
 *****  WEATHER ACROSS EASTERN NORTH DAKOTA  *****

CITY           SKY/WX    TMP DP  RH WIND       PRES   REMARKS
GRAND FORKS    CLOUDY    61  53  75 W7        29.78F
GRAND FRKS AFB CLOUDY    63  52  67 W7        29.79F
GRAND FRKS NWS   N/A     57 N/A N/A MISG        N/A
DEVILS LAKE    CLOUDY    61  48  63 N3        29.83S
FARGO          LGT RAIN  59  56  89 N10       29.77S
WAHPETON ARPT  CLOUDY    55  52  88 NE14G21   29.74S
$$

 ***** WEATHER ACROSS CENTRAL AND WESTERN NORTH DAKOTA  *****

CITY           SKY/WX    TMP DP  RH WIND       PRES   REMARKS
BISMARCK       LGT RAIN  57  55  93 N5        29.86R FOG
MINOT          CLOUDY    58  49  72 SW5       29.86S
JAMESTOWN      CLOUDY    59  56  89 N3        29.81S
MINOT AFB      PTSUNNY   63  55  74 NW2       29.85S
GARRISON         N/A     60  54  80 NW6       29.86S
WILLISTON      PTSUNNY   57  47  69 CALM      29.88F
DICKINSON      LGT RAIN  54  51  90 NE7       29.88R FOG
HETTINGER      LGT RAIN  53  52  96 NE9       29.87R FOG
$$

 *****  OTHER AIRPORT OBSERVATIONS IN OUR AREA  *****

CITY           SKY/WX    TMP DP  RH WIND       PRES   REMARKS
WALHALLA         N/A     61  48  63 NW8       29.82S
GRAFTON AIRPOR FAIR      61  48  63 NW6       29.79F
VALLEY CITY AR FAIR      57  57 100 N3        29.81S
CANDO          FAIR      63  48  59 N9        29.84S
CAVALIER APRT  FAIR      63  46  55 N8        29.80F
GWINNER        NOT AVBL
SHEYENNE NWR     N/A     58  56  94 NE9       29.95
ROLLA          FAIR      64  46  52 N14       29.87S
 ***** THE ABOVE OBSERVATIONS ARE NON NWS ARE NOT QUALITY
       CONTROLLED AND MAY MIS-REPORT RAIN FOR SNOW...
$$

  *****  WEATHER ACROSS NORTHERN MINNESOTA  *****

CITY           SKY/WX    TMP DP  RH WIND       PRES   REMARKS
FLAG ISLAND    CLOUDY    63  45  51 NE7       29.79R
WARROAD        CLOUDY    61  54  77 NE3       29.79F
ROSEAU         CLOUDY    61  52  72 CALM      29.79S
HALLOCK        CLOUDY    61  52  72 N5        29.78S
THF RVR FALLS  CLOUDY    61  52  72 W6        29.79S
BAUDETTE       CLOUDY    58  53  84 NW3       29.77F
WASKISH        CLOUDY    59  55  88 CALM      29.78F
CROOKSTON      CLOUDY    61  54  77 W7        29.79S
STEPHEN NDAWN    N/A     61  52  72 NW3         N/A
GREENBUSH NDAW   N/A     59  55  88 N3          N/A
$$
  *****  WEATHER ACROSS CENTRAL AND WEST MINNESOTA  *****

CITY           SKY/WX    TMP DP  RH WIND       PRES   REMARKS
FOSSTON        DRIZZLE   57  55  94 CALM      29.80S
BEMIDJI        LGT RAIN  56  55  95 N6        29.79F
PARK RAPIDS    LGT RAIN  57  54  89 NE15G30   29.74S FOG
ELBOW LAKE     RAIN      56  56  99 N6        29.69S
WADENA         LGT RAIN  55  55 100 NE10G18   29.69F
DETROIT LAKES  DRIZZLE   55  54  94 NE12      29.77S
MOORHEAD       LGT RAIN  57  55  94 N14       29.78S
FERGUS FALLS   RAIN      55  55 100 NE15G25   29.72S
MORRIS MN      LGT RAIN  59  57  94 N3        29.68S
STAPLES        HVY RAIN  55  55 100 NE6       29.69F
$$
  *****  WEATHER ELSEWHERE ACROSS MINNESOTA  *****

CITY           SKY/WX    TMP DP  RH WIND       PRES   REMARKS
DULUTH         LGT RAIN  59  56  89 E20G30    29.70F FOG
INTRNTL FALLS  CLOUDY    59  53  80 CALM      29.79S
ELY            LGT RAIN  57  55  94 NE5       29.79F
CLOQUET        DRIZZLE   55  54  94 E12G20    29.72R
WHEATON        RAIN      55  54  94 N8        29.72S
BRAINERD       LGT RAIN  57  56  96 NE8       29.69F VSB 1
HIBBING        LGT RAIN  58  54  86 NE9       29.76S FOG
ALEXANDRIA     LGT RAIN  57  57 100 NE7       29.69S FOG
SAINT CLOUD    CLOUDY    57  57 100 E5        29.66S FOG
MINNEAPOLIS    CLOUDY    60  60 100 SW9       29.67R FOG
$$

  *****  WEATHER ACROSS SOUTH DAKOTA  *****

CITY           SKY/WX    TMP DP  RH WIND       PRES   REMARKS
SIOUX FALLS    CLOUDY    61  57  87 NW6       29.75S
BROOKINGS      CLOUDY    57  55  94 W6        29.75F
WATERTOWN      CLOUDY    58  55  90 N8        29.73S
HURON          CLOUDY    59  58  96 N7        29.75F FOG
SISSETON         N/A     57  56  96 NE18      29.72R
ABERDEEN       CLOUDY    58  56  93 NE12      29.77R
MITCHELL       CLOUDY    59  58  96 NW7       29.77R
PIERRE         CLOUDY    57  56  96 NE8       29.77S
MOBRIDGE       LGT RAIN  58  57  97 NE7       29.80R FOG
RAPID CITY     CLOUDY    54  50  86 N10       29.84R
$$

  *****  SOME WEATHER IN NEARBY STATES *****

CITY           SKY/WX    TMP DP  RH WIND       PRES   REMARKS
GLASGOW MT     SUNNY     56  45  66 CALM      29.89S
GREAT FALLS MT MOSUNNY   51  45  79 SW9       29.93S
CHEYENNE WY    LGT RAIN  46  41  82 NW8       29.91R
SCOTTSBLUFF NE LGT RAIN  50  49  96 W13       29.84S
OMAHA NE       PTSUNNY   65  59  81 S9        29.79F
DES MOINES IA  CLOUDY    67  62  84 SW12      29.82F
DAVENPORT IA   LGT RAIN  67  62  84 SW15G23   29.86R
CHICAGO IL     PTSUNNY   72  63  73 S23G31    29.84R
EAU CLAIRE WI  CLOUDY    60  59  96 SW7       29.68S FOG
LA CROSSE WI   CLOUDY    67  63  87 S5        29.72R
$$

  *****  SOME NATIONAL WEATHER *****

CITY           SKY/WX    TMP DP  RH WIND       PRES   REMARKS
LA GUARDIA NY  PTSUNNY   73  56  54 SW9       30.27S
RALEIGH NC     PTSUNNY   74  60  61 S9        30.36S
ATLANTA GA     PTSUNNY   72  64  76 SE8       30.29F
NEW ORLEANS LA CLOUDY    80  74  81 SE8       30.07R
OKLAHOMA CITY  CLOUDY    70  67  90 S14       29.87S
ALBUQUERQUE NM PTSUNNY   52  44  74 S6        30.01S
SALT LAKE CITY PTSUNNY   54  49  83 SE7       29.95R
LOS ANGELES CA CLOUDY    59  54  83 S5        29.98R
BOISE ID       CLOUDY    59  47  64 SE8       29.89R
SEATTLE WA     CLOUDY    53  48  83 SW7       30.02R
$$

*** WEATHER ACROSS MANITOBA...SASKATCHEWAN AND ONTARIO ***
                ***ONTARIO***

CITY           SKY/WX    TMP DP  RH WIND       PRES   REMARKS
GERALDTON      CLOUDY    55  46  71 E2        29.88F
THUNDER BAY    LGT RAIN  50  43  76 E7        29.86S
SIOUX LOOKOUT  CLOUDY    64  46  52 CALM      29.81F
TORONTO        PTSUNNY   66  50  55 SE8       30.08S
BIG TROUT LK   SUNNY     50  36  57 E6        29.89F
PICKLE LAKE    PTSUNNY   61  37  41 E3        29.86F
DRYDEN         CLOUDY    63  48  59 NE6       29.80F
KENORA         CLOUDY    66  43  42 N6        29.81F
$$
                *** MANITOBA***

CITY           SKY/WX    TMP DP  RH WIND       PRES   REMARKS
BRANDON        CLOUDY    72  46  40 NW9       29.85S
DAUPHIN        SUNNY     66  46  48 W9        29.82S
ISLAND LAKE    MOSUNNY   54  41  62 NW6       29.85F
PILOT MOUND      N/A     64  46  52 N10         N/A
THE PAS        MOSUNNY   66  45  45 S2        29.82F
THOMPSON       SUNNY     52  37  58 VRB2      29.84F
WINNIPEG       CLOUDY    64  45  48 NE5       29.82F
LYNN LAKE      SUNNY     55  37  50 S8        29.79F
CHURCHILL      MOSUNNY   39  27  60 SW10      29.90F
GILLAM         SUNNY     45  27  49 S6        29.90F
$$
                ***SASKATCHEWAN***

CITY           SKY/WX    TMP DP  RH WIND       PRES   REMARKS
ESTEVAN        PTSUNNY   61  48  63 CALM      29.88F
KINDERSLEY     PTSUNNY   57  36  44 VRB2      29.89S
LLOYDMINSTER   LGT RAIN  66  39  37 SW16      29.89S
PRINCE ALBERT  MOSUNNY   59  48  67 VRB2      29.84F
REGINA         PTSUNNY   63  43  48 VRB2      29.88S
YORKTON        SUNNY     63  48  59 VRB2      29.85S
N. BATTLEFORD  SUNNY     59  46  63 N3        29.89S
LA RONGE       PTSUNNY   59  43  55 CALM      29.81S
SASKATOON      PTSUNNY   61  45  55 W3        29.88F
SWIFT CURRENT  PTSUNNY   64  43  45 N3        29.90S
$$
NOTE: THESE ARE AUTOMATED STATIONS WITH LIMITED QUALITY CONTROL
      "FAIR" INDICATES FEW OR NO CLOUDS BELOW 12,000 FEET WITH NO
      SIGNIFICANT WEATHER AND/OR OBSTRUCTIONS TO VISIBILITY.
      SKY/WX - SKY CONDITION AND SIGNIFICANT WEATHER.
      TMP - AIR TEMPERATURE.    DP   - DEWPOINT TEMPERATURE.
      RH  - RELATIVE HUMIDITY.  PRES - PRESSURE.
      HX  - HEAT INDEX.         WCI  - WIND CHILL INDEX.
$


USA.gov is the U.S. government's official web portal to all federal, state and local government web resources and services.